"startDT [UTC]","vpos","CH4 [ppm]","stdev(CH4) [ppm]","CO2 [ppm]","stdev(CO2) [ppm]","H2O [ppm]","stdev(H2O)","p_LGR [torr]","T_LGR [C]","mt1_LGR [us]","mt2_LGR [us]","T_ECpre [C]","T_EC1 [C]","T_EC2 [C]","p_inlet [hPa]","p_in [hPa]","p_out [hPa]","T_inlet [C]","RH_inlet [%]","dwpt_inlet [C]","T_vent [C]","RH_vent [%]","dwpt_vent [C]","flow_vent [l min-1]","flow_inlet [l min-1]","dwpt_sample [C]","T_room [C]"
2012-12-30 00:00:00,0.0,1.9089,0.0009,402.66,0.44,13.1,20.2,138.05,31.16,24.65,36.40,0.04,-272.75,-272.74,-45,566,-952,25.7,1.5,-30.0,25.7,1.6,-29.6,5.73,2.42,-27.3,30.7
2012-12-30 00:01:00,0.0,1.9086,0.0010,402.53,0.40,19.6,21.4,138.05,31.16,24.65,36.41,0.04,-272.74,-272.75,-45,566,-952,25.7,1.5,-30.2,25.7,1.6,-29.7,5.73,2.42,-27.3,30.7
2012-12-30 00:02:00,0.0,1.9088,0.0009,402.47,0.39,11.7,16.9,138.05,31.17,24.65,36.41,0.04,-272.75,-272.74,-45,566,-952,25.7,1.5,-30.2,25.8,1.6,-29.8,5.73,2.42,-27.3,30.7
2012-12-30 00:03:00,0.0,1.9087,0.0008,402.55,0.40,19.1,23.3,138.05,31.17,24.65,36.40,0.04,-272.75,-272.75,-45,566,-952,25.7,1.5,-30.4,25.8,1.5,-29.9,5.73,2.42,-27.3,30.7
2012-12-30 00:04:00,0.0,1.9092,0.0009,402.56,0.41,18.2,21.7,138.05,31.17,24.65,36.41,0.04,-272.74,-272.75,-45,566,-952,25.7,1.5,-30.5,25.8,1.5,-30.1,5.73,2.43,-27.3,30.7
2012-12-30 00:05:00,0.0,1.9089,0.0010,402.68,0.44,14.9,20.6,138.05,31.17,24.65,36.40,0.04,-272.75,-272.74,-45,566,-952,25.6,1.4,-30.7,25.7,1.5,-30.2,5.73,2.42,-27.3,30.7
2012-12-30 00:06:00,0.0,1.9086,0.0009,402.68,0.41,17.3,18.7,138.05,31.17,24.65,36.40,0.04,-272.75,-272.74,-45,566,-952,25.6,1.4,-30.8,25.7,1.5,-30.4,5.73,2.42,-27.3,30.7
2012-12-30 00:07:00,0.0,1.9083,0.0009,402.81,0.35,18.9,24.5,138.05,31.18,24.65,36.40,0.04,-272.75,-272.75,-45,566,-952,25.7,1.4,-30.8,25.7,1.5,-30.4,5.73,2.43,-27.3,30.7
2012-12-30 00:08:00,0.0,1.9085,0.0010,402.82,0.44,12.8,16.0,138.05,31.18,24.65,36.41,0.04,-272.74,-272.74,-45,566,-952,25.7,1.4,-31.0,25.8,1.4,-30.6,5.73,2.42,-27.3,30.7
2012-12-30 00:09:00,0.0,1.9083,0.0008,402.77,0.41,16.3,21.2,138.05,31.18,24.65,36.41,0.04,-272.74,-272.75,-45,566,-952,25.7,1.4,-31.0,25.7,1.4,-30.8,5.73,2.42,-27.3,30.7
2012-12-30 00:10:00,0.0,1.9084,0.0009,402.71,0.36,19.5,21.3,138.05,31.19,24.65,36.40,0.04,-272.75,-272.75,-45,566,-952,25.7,1.4,-31.0,25.8,1.4,-30.6,5.73,2.42,-27.3,30.7
2012-12-30 00:11:00,0.0,1.9088,0.0008,402.64,0.49,13.5,16.8,138.05,31.19,24.65,36.41,0.04,-272.74,-272.75,-45,566,-952,25.7,1.4,-31.0,25.7,1.5,-30.5,5.73,2.42,-27.3,30.7
2012-12-30 00:12:00,0.0,1.9089,0.0009,402.68,0.38,17.0,19.0,138.05,31.19,24.65,36.40,0.04,-272.74,-272.75,-45,566,-952,25.6,1.4,-31.1,25.8,1.5,-30.5,5.73,2.42,-27.3,30.7
2012-12-30 00:13:00,0.0,1.9087,0.0010,402.73,0.38,13.8,22.9,138.05,31.19,24.65,36.40,0.04,-272.75,-272.75,-45,566,-952,25.6,1.4,-30.9,25.8,1.5,-30.4,5.73,2.43,-27.3,30.8
2012-12-30 00:14:00,0.0,1.9084,0.0008,402.64,0.43,17.6,20.5,138.05,31.20,24.65,36.41,0.04,-272.75,-272.75,-45,566,-952,25.7,1.4,-30.8,25.8,1.5,-30.3,5.73,2.42,-27.3,30.7
2012-12-30 00:15:00,0.0,1.9085,0.0010,402.60,0.43,16.1,21.3,138.05,31.20,24.65,36.41,0.04,-272.74,-272.74,-45,566,-952,25.7,1.4,-30.6,25.8,1.5,-30.2,5.73,2.43,-27.3,30.8
2012-12-30 00:16:00,0.0,1.9087,0.0008,402.68,0.39,16.2,21.8,138.05,31.20,24.65,36.41,0.04,-272.75,-272.75,-45,566,-952,25.7,1.4,-30.6,25.8,1.5,-30.1,5.73,2.43,-27.3,30.8
2012-12-30 00:17:00,0.0,1.9084,0.0011,402.56,0.41,11.6,19.3,138.05,31.19,24.65,36.41,0.04,-272.75,-272.75,-45,566,-952,25.7,1.4,-30.6,25.8,1.5,-30.1,5.73,2.42,-27.3,30.7
2012-12-30 00:18:00,0.0,1.9082,0.0009,402.79,0.39,19.3,24.2,138.05,31.20,24.65,36.40,0.04,-272.74,-272.75,-45,566,-952,25.7,1.4,-30.6,25.8,1.5,-30.1,5.73,2.43,-27.3,30.7
2012-12-30 00:19:00,0.0,1.9082,0.0010,402.56,0.44,13.0,17.9,138.05,31.20,24.65,36.41,0.04,-272.75,-272.75,-45,566,-952,25.7,1.4,-30.8,25.8,1.5,-30.4,5.73,2.42,-27.3,30.7
2012-12-30 00:20:00,0.0,1.9083,0.0008,402.58,0.41,14.0,18.7,138.05,31.20,24.65,36.41,0.04,-272.75,-272.74,-45,566,-952,25.7,1.4,-30.9,25.8,1.5,-30.5,5.73,2.42,-27.3,30.8
2012-12-30 00:21:00,0.0,1.9081,0.0010,402.48,0.40,15.1,22.2,138.05,31.21,24.65,36.41,0.04,-272.74,-272.75,-45,566,-952,25.7,1.4,-31.0,25.8,1.4,-30.5,5.73,2.42,-27.4,30.8
2012-12-30 00:22:00,0.0,1.9086,0.0008,402.65,0.40,11.2,16.6,138.05,31.21,24.65,36.40,0.04,-272.75,-272.75,-45,566,-952,25.7,1.4,-31.0,25.8,1.4,-30.5,5.73,2.42,-27.4,30.8
2012-12-30 00:23:00,0.0,1.9084,0.0009,402.67,0.40,13.2,18.4,138.05,31.21,24.65,36.41,0.04,-272.75,-272.75,-45,566,-952,25.7,1.4,-30.8,25.8,1.5,-30.5,5.73,2.42,-27.4,30.8
2012-12-30 00:24:00,0.0,1.9086,0.0009,402.61,0.38,13.9,19.9,138.05,31.21,24.65,36.41,0.04,-272.75,-272.75,-45,566,-952,25.7,1.4,-30.8,25.8,1.5,-30.5,5.73,2.42,-27.4,30.8
2012-12-30 00:25:00,0.0,1.9086,0.0008,402.66,0.43,14.5,17.8,138.05,31.22,24.65,36.41,0.04,-272.75,-272.75,-45,566,-951,25.7,1.4,-30.8,25.8,1.5,-30.3,5.73,2.42,-27.4,30.8
2012-12-30 00:26:00,0.0,1.9086,0.0011,402.71,0.38,18.6,24.1,138.05,31.22,24.65,36.40,0.04,-272.75,-272.75,-45,566,-952,25.7,1.4,-30.6,25.8,1.5,-30.1,5.73,2.42,-27.4,30.8
2012-12-30 00:27:00,0.0,1.9087,0.0009,402.69,0.40,18.7,24.1,138.05,31.22,24.65,36.41,0.04,-272.75,-272.75,-45,566,-952,25.7,1.5,-30.5,25.8,1.5,-30.1,5.73,2.41,-27.4,30.8
2012-12-30 00:28:00,0.0,1.9083,0.0009,402.63,0.48,18.2,19.6,138.05,31.22,24.65,36.41,0.04,-272.75,-272.75,-45,566,-952,25.7,1.5,-30.4,25.8,1.5,-30.0,5.73,2.41,-27.4,30.8
2012-12-30 00:29:00,0.0,1.9086,0.0010,402.72,0.47,11.7,16.0,138.05,31.22,24.65,36.41,0.04,-272.75,-272.75,-45,566,-952,25.7,1.5,-30.2,25.8,1.5,-29.9,5.73,2.42,-27.4,30.8
2012-12-30 00:30:00,0.0,1.9082,0.0008,402.71,0.45,12.7,18.3,138.05,31.22,24.66,36.41,0.04,-272.75,-272.75,-45,566,-952,25.7,1.5,-30.2,25.8,1.6,-29.8,5.73,2.42,-27.4,30.8
2012-12-30 00:31:00,0.0,1.9084,0.0011,402.71,0.45,16.6,22.9,138.05,31.22,24.65,36.41,0.04,-272.74,-272.74,-45,566,-952,25.7,1.5,-30.0,25.8,1.6,-29.6,5.73,2.41,-27.4,30.8
2012-12-30 00:32:00,0.0,1.9084,0.0009,402.73,0.40,16.1,19.7,138.05,31.22,24.65,36.40,0.04,-272.75,-272.75,-45,566,-952,25.7,1.6,-29.8,25.8,1.6,-29.6,5.73,2.41,-27.4,30.8
2012-12-30 00:33:00,0.0,1.9084,0.0009,402.84,0.37,12.8,16.1,138.05,31.23,24.65,36.40,0.04,-272.75,-272.75,-45,566,-952,25.7,1.6,-29.8,25.8,1.6,-29.4,5.73,2.41,-27.4,30.8
2012-12-30 00:34:00,0.0,1.9085,0.0009,402.76,0.41,14.2,18.6,138.05,31.23,24.65,36.41,0.04,-272.74,-272.75,-45,566,-952,25.7,1.6,-29.8,25.8,1.6,-29.3,5.73,2.41,-27.4,30.8
2012-12-30 00:35:00,0.0,1.9084,0.0010,402.71,0.47,14.5,20.2,138.05,31.23,24.65,36.41,0.04,-272.74,-272.75,-45,566,-952,25.7,1.6,-29.7,25.8,1.6,-29.4,5.73,2.41,-27.4,30.8
2012-12-30 00:36:00,0.0,1.9082,0.0009,402.61,0.48,10.8,15.5,138.05,31.23,24.65,36.41,0.04,-272.75,-272.75,-45,566,-952,25.7,1.6,-29.7,25.8,1.6,-29.4,5.73,2.42,-27.4,30.8
2012-12-30 00:37:00,0.0,1.9083,0.0009,402.73,0.33,19.8,21.1,138.05,31.23,24.65,36.41,0.04,-272.75,-272.75,-45,566,-952,25.7,1.6,-29.8,25.8,1.6,-29.4,5.73,2.41,-27.4,30.8
2012-12-30 00:38:00,0.0,1.9096,0.0010,402.77,0.32,15.5,24.5,138.05,31.23,24.65,36.41,0.04,-272.74,-272.74,-45,566,-952,25.7,1.6,-29.8,25.8,1.6,-29.4,5.73,2.42,-27.4,30.8
2012-12-30 00:39:00,0.0,1.9096,0.0009,402.73,0.37,9.7,16.1,138.05,31.23,24.65,36.41,0.04,-272.74,-272.75,-45,566,-952,25.7,1.6,-29.8,25.8,1.6,-29.5,5.73,2.41,-27.4,30.8
2012-12-30 00:40:00,0.0,1.9107,0.0009,402.70,0.40,14.9,19.7,138.05,31.24,24.65,36.41,0.04,-272.75,-272.75,-45,566,-952,25.7,1.5,-30.2,25.8,1.6,-29.7,5.73,2.41,-27.4,30.8
2012-12-30 00:41:00,0.0,1.9097,0.0009,402.71,0.45,17.2,23.2,138.05,31.24,24.65,36.41,0.04,-272.74,-272.75,-45,566,-952,25.7,1.5,-30.2,25.8,1.6,-29.8,5.73,2.42,-27.4,30.8
2012-12-30 00:42:00,0.0,1.9103,0.0008,402.71,0.47,11.4,19.1,138.05,31.24,24.65,36.40,0.04,-272.75,-272.75,-45,566,-952,25.7,1.5,-30.4,25.8,1.5,-29.9,5.73,2.42,-27.4,30.8
2012-12-30 00:43:00,0.0,1.9102,0.0009,402.72,0.39,16.3,26.6,138.05,31.24,24.65,36.41,0.04,-272.75,-272.75,-45,566,-952,25.7,1.5,-30.2,25.9,1.6,-29.7,5.73,2.41,-27.5,30.8
2012-12-30 00:44:00,0.0,1.9095,0.0009,402.71,0.38,10.7,16.2,138.05,31.24,24.65,36.40,0.04,-272.75,-272.75,-45,566,-952,25.7,1.5,-30.2,25.9,1.6,-29.7,5.73,2.42,-27.5,30.8
2012-12-30 00:45:00,0.0,1.9093,0.0009,402.77,0.42,7.7,16.6,138.05,31.24,24.66,36.40,0.04,-272.75,-272.74,-45,566,-952,25.7,1.5,-30.2,25.9,1.6,-29.7,5.73,2.42,-27.5,30.8
2012-12-30 00:46:00,0.0,1.9096,0.0010,402.70,0.32,12.0,19.2,138.05,31.25,24.65,36.41,0.04,-272.75,-272.75,-45,566,-952,25.7,1.5,-30.0,25.8,1.6,-29.7,5.73,2.42,-27.5,30.8
2012-12-30 00:47:00,0.0,1.9100,0.0010,402.69,0.34,10.3,19.1,138.05,31.25,24.65,36.41,0.04,-272.75,-272.75,-45,566,-952,25.7,1.5,-30.1,25.8,1.6,-29.7,5.73,2.42,-27.5,30.8
2012-12-30 00:48:00,0.0,1.9093,0.0010,402.57,0.41,10.1,14.2,138.05,31.25,24.65,36.41,0.04,-272.75,-272.74,-45,566,-952,25.7,1.5,-30.2,25.8,1.6,-29.7,5.73,2.42,-27.5,30.8
2012-12-30 00:49:00,0.0,1.9094,0.0011,402.59,0.43,14.4,20.0,138.05,31.25,24.65,36.41,0.04,-272.74,-272.75,-45,566,-952,25.7,1.5,-30.3,25.8,1.5,-29.9,5.73,2.42,-27.5,30.8
2012-12-30 00:50:00,0.0,1.9095,0.0009,402.72,0.38,8.5,14.3,138.05,31.26,24.65,36.41,0.04,-272.75,-272.75,-45,566,-952,25.7,1.5,-30.4,25.9,1.5,-30.0,5.73,2.42,-27.5,30.8
2012-12-30 00:51:00,0.0,1.9094,0.0010,402.66,0.40,5.4,10.8,138.05,31.26,24.65,36.41,0.04,-272.75,-272.75,-45,566,-952,25.7,1.4,-30.6,25.8,1.5,-30.1,5.73,2.43,-27.5,30.8
2012-12-30 00:52:00,0.0,1.9095,0.0010,402.70,0.51,9.3,17.0,138.05,31.26,24.65,36.40,0.04,-272.74,-272.75,-45,566,-952,25.7,1.4,-30.6,25.8,1.5,-30.1,5.73,2.43,-27.5,30.8
2012-12-30 00:53:00,0.0,1.9094,0.0008,402.78,0.37,12.3,15.2,138.05,31.26,24.65,36.40,0.04,-272.75,-272.75,-45,566,-952,25.7,1.4,-30.6,25.9,1.5,-30.3,5.73,2.42,-27.5,30.8
2012-12-30 00:54:00,0.0,1.9093,0.0010,402.62,0.39,9.1,17.0,138.05,31.26,24.65,36.41,0.04,-272.75,-272.75,-45,566,-952,25.7,1.4,-30.7,25.9,1.5,-30.3,5.73,2.42,-27.5,30.8
2012-12-30 00:55:00,0.0,1.9087,0.0011,402.62,0.37,10.5,18.6,138.05,31.26,24.65,36.41,0.04,-272.75,-272.74,-45,566,-952,25.8,1.4,-30.9,25.9,1.4,-30.5,5.73,2.43,-27.4,30.8
2012-12-30 00:56:00,0.0,1.9086,0.0009,402.62,0.38,7.1,11.0,138.05,31.27,24.65,36.40,0.04,-272.75,-272.75,-45,566,-952,25.7,1.4,-30.9,25.9,1.4,-30.6,5.73,2.43,-27.4,30.8
2012-12-30 00:57:00,0.0,1.9087,0.0010,402.58,0.42,10.9,16.4,138.05,31.27,24.65,36.41,0.04,-272.75,-272.75,-45,566,-952,25.7,1.4,-31.1,25.9,1.4,-30.7,5.73,2.42,-27.4,30.8
2012-12-30 00:58:00,0.0,1.9087,0.0010,402.75,0.43,7.8,14.0,138.05,31.27,24.65,36.40,0.04,-272.74,-272.75,-45,566,-952,25.8,1.4,-31.1,25.8,1.4,-30.7,5.73,2.42,-27.4,30.8
2012-12-30 00:59:00,0.0,1.9084,0.0010,402.56,0.37,13.8,19.3,138.05,31.27,24.65,36.42,0.04,-272.75,-272.75,-45,566,-952,25.8,1.4,-31.2,25.9,1.4,-30.7,5.73,2.43,-27.4,30.8
2012-12-30 01:00:00,0.0,1.9091,0.0011,402.75,0.33,8.3,14.8,138.05,31.27,24.65,36.41,0.04,-272.75,-272.75,-45,566,-952,25.8,1.4,-31.0,25.9,1.4,-30.7,5.73,2.42,-27.4,30.8
2012-12-30 01:01:00,0.0,1.9095,0.0010,402.75,0.40,13.1,18.3,138.05,31.27,24.65,36.40,0.04,-272.75,-272.75,-45,566,-952,25.7,1.4,-31.0,25.9,1.4,-30.7,5.73,2.43,-27.4,30.8
2012-12-30 01:02:00,0.0,1.9085,0.0011,402.65,0.41,11.9,17.3,138.05,31.28,24.65,36.41,0.04,-272.75,-272.74,-45,566,-952,25.7,1.4,-31.0,25.9,1.4,-30.6,5.73,2.42,-27.4,30.8
2012-12-30 01:03:00,0.0,1.9090,0.0010,402.60,0.42,9.7,19.6,138.05,31.28,24.65,36.40,0.04,-272.75,-272.75,-45,566,-952,25.8,1.4,-30.9,25.8,1.4,-30.5,5.73,2.43,-27.4,30.8
2012-12-30 01:04:00,0.0,1.9098,0.0010,402.76,0.34,10.0,16.8,138.05,31.28,24.65,36.41,0.04,-272.75,-272.75,-45,566,-952,25.7,1.4,-30.8,25.9,1.5,-30.3,5.73,2.42,-27.5,30.8
2012-12-30 01:05:00,0.0,1.9096,0.0010,402.69,0.40,8.4,15.1,138.05,31.28,24.65,36.41,0.04,-272.74,-272.75,-45,566,-952,25.8,1.4,-30.6,25.9,1.5,-30.2,5.73,2.41,-27.5,30.8
2012-12-30 01:06:00,0.0,1.9099,0.0010,402.73,0.35,10.7,16.4,138.05,31.28,24.65,36.41,0.04,-272.74,-272.75,-45,566,-952,25.8,1.5,-30.5,25.9,1.5,-30.1,5.73,2.42,-27.4,30.8
2012-12-30 01:07:00,0.0,1.9098,0.0008,402.82,0.36,10.3,15.0,138.05,31.28,24.65,36.40,0.04,-272.75,-272.75,-45,566,-952,25.8,1.5,-30.5,25.9,1.5,-30.1,5.73,2.42,-27.5,30.8
2012-12-30 01:08:00,0.0,1.9095,0.0009,402.72,0.42,7.6,15.3,138.05,31.28,24.65,36.40,0.04,-272.74,-272.75,-45,566,-952,25.8,1.5,-30.3,25.9,1.5,-30.0,5.73,2.41,-27.5,30.8
2012-12-30 01:09:00,0.0,1.9095,0.0008,402.75,0.35,11.7,19.4,138.05,31.29,24.65,36.41,0.04,-272.75,-272.74,-45,566,-952,25.7,1.5,-30.3,25.9,1.5,-29.9,5.73,2.41,-27.5,30.8
2012-12-30 01:10:00,0.0,1.9091,0.0010,402.79,0.35,13.5,17.9,138.05,31.29,24.65,36.40,0.04,-272.75,-272.75,-45,566,-952,25.8,1.5,-30.1,25.9,1.6,-29.7,5.73,2.42,-27.5,30.8
2012-12-30 01:11:00,0.0,1.9091,0.0008,402.64,0.35,10.5,20.6,138.05,31.29,24.65,36.41,0.04,-272.75,-272.75,-45,566,-952,25.8,1.5,-30.2,25.9,1.6,-29.7,5.73,2.41,-27.5,30.8
2012-12-30 01:12:00,0.0,1.9092,0.0011,402.69,0.35,14.5,20.4,138.05,31.29,24.65,36.41,0.04,-272.74,-272.74,-45,566,-952,25.8,1.5,-30.1,25.9,1.6,-29.7,5.73,2.41,-27.5,30.8
2012-12-30 01:13:00,0.0,1.9085,0.0009,402.59,0.47,7.5,13.9,138.04,31.29,24.66,36.41,0.04,-272.74,-272.75,-45,566,-952,25.8,1.5,-29.9,25.9,1.6,-29.5,5.73,2.41,-27.5,30.8
2012-12-30 01:14:00,0.0,1.9091,0.0009,402.52,0.40,9.5,17.2,138.05,31.29,24.65,36.41,0.04,-272.75,-272.75,-45,566,-952,25.8,1.5,-29.9,25.9,1.6,-29.5,5.73,2.41,-27.5,30.8
2012-12-30 01:15:00,0.0,1.9089,0.0010,402.57,0.38,12.4,18.7,138.05,31.30,24.65,36.42,0.04,-272.74,-272.75,-45,566,-952,25.8,1.5,-29.9,25.9,1.6,-29.5,5.73,2.41,-27.5,30.8
2012-12-30 01:16:00,0.0,1.9095,0.0010,402.69,0.42,11.6,19.4,138.05,31.30,24.65,36.40,0.04,-272.75,-272.75,-45,566,-951,25.8,1.5,-29.9,25.9,1.6,-29.5,5.73,2.41,-27.5,30.9
2012-12-30 01:17:00,0.0,1.9095,0.0009,402.57,0.35,11.3,18.3,138.05,31.30,24.65,36.41,0.04,-272.75,-272.75,-45,566,-952,25.8,1.5,-29.9,25.9,1.6,-29.5,5.73,2.41,-27.5,30.8
2012-12-30 01:18:00,0.0,1.9089,0.0009,402.55,0.40,16.1,20.5,138.05,31.30,24.65,36.41,0.04,-272.75,-272.75,-45,566,-952,25.8,1.6,-29.8,25.9,1.6,-29.5,5.73,2.41,-27.5,30.8
2012-12-30 01:19:00,0.0,1.9090,0.0010,402.57,0.39,9.0,16.4,138.05,31.30,24.65,36.40,0.04,-272.75,-272.75,-45,566,-952,25.8,1.6,-29.8,25.9,1.6,-29.3,5.73,2.41,-27.5,30.8
2012-12-30 01:20:00,0.0,1.9087,0.0010,402.53,0.41,13.6,20.8,138.05,31.31,24.65,36.41,0.04,-272.75,-272.75,-45,566,-952,25.8,1.6,-29.6,25.9,1.6,-29.3,5.73,2.41,-27.5,30.8
2012-12-30 01:21:00,0.0,1.9085,0.0009,402.52,0.40,8.6,15.6,138.05,31.31,24.65,36.41,0.04,-272.74,-272.75,-45,566,-952,25.8,1.6,-29.6,25.9,1.6,-29.3,5.73,2.42,-27.5,30.8
2012-12-30 01:22:00,0.0,1.9091,0.0011,402.55,0.36,8.3,17.9,138.05,31.31,24.65,36.41,0.04,-272.74,-272.75,-45,566,-952,25.8,1.6,-29.6,25.9,1.6,-29.2,5.73,2.41,-27.5,30.8
2012-12-30 01:23:00,0.0,1.9092,0.0009,402.61,0.42,10.2,18.9,138.04,31.31,24.65,36.41,0.04,-272.75,-272.75,-45,566,-952,25.8,1.6,-29.6,25.9,1.6,-29.2,5.73,2.42,-27.5,30.9
2012-12-30 01:24:00,0.0,1.9095,0.0010,402.71,0.40,9.5,16.3,138.05,31.31,24.65,36.41,0.04,-272.75,-272.75,-45,566,-952,25.8,1.6,-29.6,25.9,1.6,-29.2,5.73,2.42,-27.5,30.8
2012-12-30 01:25:00,0.0,1.9083,0.0011,402.54,0.39,13.5,17.5,138.05,31.31,24.65,36.41,0.04,-272.75,-272.74,-45,566,-952,25.8,1.6,-29.5,25.9,1.6,-29.2,5.73,2.42,-27.5,30.8
2012-12-30 01:26:00,0.0,1.9081,0.0009,402.63,0.42,8.5,15.3,138.05,31.32,24.66,36.41,0.04,-272.74,-272.75,-45,566,-952,25.8,1.6,-29.5,25.9,1.6,-29.1,5.73,2.42,-27.5,30.8
2012-12-30 01:27:00,0.0,1.9085,0.0008,402.52,0.41,9.1,17.9,138.05,31.32,24.65,36.41,0.04,-272.75,-272.75,-45,566,-951,25.8,1.6,-29.6,25.9,1.6,-29.1,5.73,2.42,-27.5,30.9
2012-12-30 01:28:00,0.0,1.9087,0.0011,402.49,0.39,16.9,21.6,138.05,31.32,24.65,36.41,0.04,-272.74,-272.75,-45,566,-952,25.8,1.6,-29.5,25.9,1.6,-29.1,5.73,2.43,-27.5,30.9
2012-12-30 01:29:00,0.0,1.9085,0.0009,402.49,0.42,6.5,13.3,138.05,31.32,24.65,36.42,0.04,-272.75,-272.74,-45,566,-952,25.8,1.6,-29.6,25.9,1.6,-29.2,5.73,2.42,-27.5,30.9
2012-12-30 01:30:00,0.0,1.9082,0.0011,402.55,0.36,10.1,15.7,138.05,31.33,24.65,36.41,0.04,-272.75,-272.75,-45,566,-952,25.8,1.6,-29.5,25.9,1.6,-29.1,5.73,2.42,-27.5,30.9
2012-12-30 01:31:00,0.0,1.9085,0.0009,402.55,0.39,9.4,16.4,138.05,31.33,24.65,36.41,0.04,-272.74,-272.75,-45,566,-952,25.8,1.6,-29.6,25.9,1.6,-29.2,5.73,2.43,-27.5,30.9
2012-12-30 01:32:00,0.0,1.9084,0.0010,402.59,0.45,9.9,16.6,138.05,31.32,24.65,36.41,0.04,-272.74,-272.75,-45,566,-952,25.8,1.6,-29.7,25.9,1.6,-29.4,5.73,2.42,-27.5,30.9
2012-12-30 01:33:00,0.0,1.9086,0.0010,402.63,0.43,9.7,15.6,138.05,31.32,24.65,36.40,0.04,-272.75,-272.75,-45,566,-952,25.8,1.6,-29.7,25.9,1.6,-29.3,5.73,2.43,-27.5,30.9
2012-12-30 01:34:00,0.0,1.9098,0.0010,403.17,0.43,11.1,19.6,138.05,31.33,24.65,36.40,0.04,-272.75,-272.75,-45,566,-952,25.8,1.6,-29.5,25.9,1.6,-29.1,5.73,2.43,-27.5,30.9
2012-12-30 01:35:00,0.0,1.9092,0.0009,403.26,0.50,12.3,18.0,138.05,31.33,24.65,36.41,0.04,-272.74,-272.75,-45,566,-952,25.8,1.6,-29.4,25.9,1.7,-29.0,5.73,2.42,-27.5,30.9
2012-12-30 01:36:00,0.0,1.9098,0.0008,403.82,0.39,9.3,17.4,138.05,31.33,24.65,36.41,0.04,-272.75,-272.75,-45,566,-952,25.8,1.6,-29.2,25.9,1.7,-28.8,5.73,2.43,-27.5,30.9
2012-12-30 01:37:00,0.0,1.9098,0.0011,403.86,0.43,11.1,17.2,138.05,31.34,24.65,36.41,0.04,-272.75,-272.75,-45,566,-952,25.8,1.7,-29.1,25.9,1.7,-28.7,5.73,2.42,-27.5,30.9
2012-12-30 01:38:00,0.0,1.9092,0.0009,404.20,0.38,9.5,19.0,138.05,31.34,24.65,36.41,0.04,-272.75,-272.74,-45,566,-952,25.8,1.7,-28.9,25.9,1.7,-28.5,5.73,2.42,-27.5,30.9
2012-12-30 01:39:00,0.0,1.9096,0.0010,405.30,0.71,12.7,18.4,138.04,31.34,24.65,36.40,0.04,-272.74,-272.75,-45,566,-952,25.8,1.7,-28.9,25.9,1.7,-28.5,5.73,2.42,-27.5,30.9
2012-12-30 01:40:00,0.0,1.9083,0.0010,406.54,0.43,12.6,20.0,138.05,31.34,24.65,36.41,0.04,-272.75,-272.75,-45,566,-952,25.8,1.7,-28.6,25.9,1.8,-28.3,5.73,2.42,-27.5,30.9
2012-12-30 01:41:00,0.0,1.9087,0.0009,405.50,0.80,10.2,18.6,138.05,31.34,24.65,36.40,0.04,-272.75,-272.75,-45,566,-952,25.8,1.8,-28.3,25.9,1.8,-27.9,5.73,2.42,-27.5,30.9
2012-12-30 01:42:00,0.0,1.9082,0.0010,404.33,0.38,9.3,17.4,138.05,31.34,24.65,36.41,0.04,-272.75,-272.74,-45,566,-952,25.8,1.9,-27.9,25.9,1.9,-27.6,5.73,2.42,-27.5,30.9
2012-12-30 01:43:00,0.0,1.9079,0.0009,403.78,0.44,8.0,14.5,138.05,31.34,24.65,36.42,0.04,-272.74,-272.75,-45,566,-952,25.8,1.9,-27.4,25.9,2.0,-27.1,5.73,2.41,-27.5,30.9
2012-12-30 01:44:00,0.0,1.9080,0.0009,404.64,0.36,10.7,18.4,138.05,31.35,24.65,36.40,0.04,-272.75,-272.75,-45,566,-952,25.8,2.0,-27.1,25.9,2.0,-26.9,5.73,2.41,-27.5,30.9
2012-12-30 01:45:00,0.0,1.9076,0.0009,405.22,0.37,7.0,13.1,138.05,31.35,24.65,36.41,0.04,-272.74,-272.75,-45,566,-952,25.8,2.0,-27.3,25.9,2.0,-26.9,5.73,2.41,-27.5,30.9
2012-12-30 01:46:00,0.0,1.9083,0.0009,405.47,0.46,6.9,15.2,138.05,31.35,24.65,36.40,0.04,-272.75,-272.75,-45,566,-952,25.8,1.9,-27.5,25.9,2.0,-27.1,5.73,2.41,-27.5,30.9
2012-12-30 01:47:00,0.0,1.9091,0.0009,404.26,0.37,10.2,14.9,138.05,31.35,24.65,36.41,0.04,-272.75,-272.75,-45,566,-952,25.8,1.9,-27.6,25.9,2.0,-27.3,5.73,2.41,-27.5,30.9
2012-12-30 01:48:00,0.0,1.9091,0.0008,403.76,0.55,9.1,16.1,138.04,31.35,24.65,36.40,0.04,-272.75,-272.75,-45,566,-952,25.8,1.9,-27.7,25.9,1.9,-27.4,5.73,2.41,-27.5,30.9
2012-12-30 01:49:00,0.0,1.9092,0.0010,404.36,0.42,10.6,17.0,138.05,31.36,24.65,36.41,0.04,-272.75,-272.75,-45,566,-952,25.8,1.8,-28.0,25.9,1.9,-27.7,5.73,2.41,-27.5,30.9
2012-12-30 01:50:00,0.0,1.9095,0.0012,403.99,0.45,10.5,18.1,138.05,31.36,24.65,36.41,0.04,-272.75,-272.75,-45,566,-952,25.8,1.8,-28.4,25.9,1.8,-28.0,5.73,2.41,-27.5,30.9
2012-12-30 01:51:00,0.0,1.9094,0.0011,403.41,0.42,13.0,22.1,138.05,31.36,24.65,36.40,0.04,-272.75,-272.75,-45,566,-952,25.8,1.6,-29.2,25.9,1.7,-28.7,5.73,2.41,-27.5,30.9
2012-12-30 01:52:00,0.0,1.9090,0.0010,403.39,0.38,5.9,13.7,138.04,31.36,24.65,36.41,0.04,-272.75,-272.74,-45,566,-952,25.8,1.6,-29.7,25.9,1.6,-29.3,5.73,2.41,-27.5,30.9
2012-12-30 01:53:00,0.0,1.9085,0.0009,403.43,0.43,11.5,19.2,138.05,31.36,24.65,36.41,0.04,-272.75,-272.74,-45,566,-952,25.8,1.5,-30.0,25.9,1.6,-29.5,5.73,2.41,-27.5,30.8
2012-12-30 01:54:00,0.0,1.9092,0.0008,403.46,0.39,10.3,20.5,138.05,31.36,24.65,36.41,0.04,-272.75,-272.75,-45,566,-952,25.8,1.5,-30.2,25.9,1.6,-29.7,5.73,2.42,-27.5,30.8
2012-12-30 01:55:00,0.0,1.9084,0.0010,403.35,0.39,13.4,18.8,138.04,31.36,24.65,36.41,0.04,-272.75,-272.75,-45,566,-952,25.8,1.5,-30.1,25.9,1.6,-29.7,5.73,2.41,-27.5,30.9
2012-12-30 01:56:00,0.0,1.9088,0.0011,403.54,0.35,10.7,16.7,138.05,31.36,24.65,36.41,0.04,-272.74,-272.75,-45,566,-952,25.8,1.5,-30.0,25.9,1.6,-29.5,5.73,2.42,-27.5,30.9
2012-12-30 01:57:00,0.0,1.9090,0.0009,403.81,0.46,7.8,16.7,138.04,31.36,24.65,36.41,0.04,-272.75,-272.75,-45,566,-952,25.8,1.6,-29.7,25.9,1.6,-29.4,5.73,2.42,-27.5,30.9
2012-12-30 01:58:00,0.0,1.9092,0.0008,403.69,0.36,12.6,19.6,138.05,31.37,24.65,36.40,0.04,-272.75,-272.75,-45,566,-952,25.8,1.6,-29.4,25.9,1.6,-29.1,5.73,2.42,-27.5,30.9
2012-12-30 01:59:00,0.0,1.9080,0.0009,403.31,0.39,11.7,16.9,138.05,31.37,24.65,36.41,0.04,-272.74,-272.75,-45,566,-952,25.8,1.7,-29.1,25.9,1.7,-28.8,5.73,2.42,-27.5,30.9
2012-12-30 02:00:00,0.0,1.9082,0.0010,403.02,0.47,13.7,20.9,138.04,31.37,24.65,36.40,0.04,-272.75,-272.75,-45,566,-952,25.8,1.7,-28.8,25.9,1.8,-28.4,5.73,2.42,-27.5,30.9
2012-12-30 02:01:00,0.0,1.9082,0.0009,402.71,0.42,7.7,16.3,138.04,31.37,24.65,36.41,0.04,-272.76,-272.75,-45,566,-952,25.8,1.7,-28.6,25.9,1.8,-28.2,5.73,2.42,-27.5,30.9
2012-12-30 02:02:00,0.0,1.9086,0.0009,402.59,0.38,8.9,17.0,138.05,31.37,24.65,36.41,0.04,-272.74,-272.75,-45,566,-952,25.8,1.8,-28.5,25.9,1.8,-28.1,5.73,2.42,-27.4,30.9
2012-12-30 02:03:00,0.0,1.9085,0.0009,402.64,0.36,11.5,16.5,138.04,31.38,24.65,36.41,0.04,-272.75,-272.74,-45,566,-952,25.8,1.8,-28.4,25.9,1.8,-28.1,5.73,2.43,-27.4,30.9
2012-12-30 02:04:00,0.0,1.9082,0.0009,402.68,0.44,9.7,15.4,138.04,31.38,24.66,36.41,0.04,-272.75,-272.74,-45,566,-952,25.8,1.8,-28.3,25.9,1.8,-28.0,5.73,2.43,-27.4,30.9
2012-12-30 02:05:00,0.0,1.9088,0.0008,402.62,0.44,9.8,17.1,138.04,31.38,24.65,36.41,0.04,-272.75,-272.75,-45,566,-952,25.8,1.8,-28.3,25.9,1.8,-28.0,5.73,2.43,-27.4,30.9
2012-12-30 02:06:00,0.0,1.9084,0.0008,402.77,0.34,6.4,12.3,138.04,31.38,24.65,36.41,0.04,-272.74,-272.75,-45,566,-952,25.8,1.8,-28.2,25.9,1.9,-27.8,5.73,2.42,-27.4,30.9
2012-12-30 02:07:00,0.0,1.9084,0.0008,402.81,0.45,13.6,20.4,138.04,31.38,24.65,36.41,0.04,-272.75,-272.75,-45,566,-952,25.8,1.8,-28.1,25.9,1.9,-27.8,5.73,2.42,-27.4,30.9
2012-12-30 02:08:00,0.0,1.9086,0.0007,402.72,0.42,10.9,18.1,138.04,31.38,24.65,36.41,0.04,-272.75,-272.75,-45,566,-952,25.8,1.8,-28.2,25.9,1.8,-27.9,5.73,2.42,-27.4,30.9
2012-12-30 02:09:00,0.0,1.9088,0.0009,402.92,0.34,15.0,18.3,138.04,31.39,24.66,36.41,0.04,-272.75,-272.75,-45,566,-952,25.8,1.8,-28.3,26.0,1.8,-27.9,5.73,2.42,-27.4,30.9
2012-12-30 02:10:00,0.0,1.9098,0.0011,403.64,0.41,13.0,18.0,138.04,31.39,24.65,36.40,0.04,-272.75,-272.75,-45,566,-952,25.9,1.8,-28.3,25.9,1.8,-28.1,5.73,2.42,-27.4,30.9
2012-12-30 02:11:00,0.0,1.9101,0.0009,403.79,0.37,15.2,20.3,138.04,31.39,24.65,36.40,0.04,-272.75,-272.75,-45,566,-952,25.9,1.8,-28.5,25.9,1.8,-28.1,5.73,2.42,-27.4,30.9
2012-12-30 02:12:00,0.0,1.9100,0.0007,403.72,0.49,14.7,19.5,138.04,31.39,24.65,36.40,0.04,-272.74,-272.74,-45,567,-952,25.9,1.7,-28.6,25.9,1.8,-28.2,5.73,2.42,-27.4,30.9
2012-12-30 02:13:00,0.0,1.9106,0.0010,404.03,0.39,13.9,19.6,138.04,31.39,24.65,36.41,0.04,-272.74,-272.74,-45,567,-952,25.8,1.7,-28.7,26.0,1.8,-28.3,5.73,2.41,-27.4,30.9
2012-12-30 02:14:00,0.0,1.9103,0.0009,403.87,0.39,14.9,18.6,138.04,31.39,24.65,36.40,0.04,-272.75,-272.75,-45,566,-952,25.9,1.7,-28.8,26.0,1.8,-28.4,5.73,2.41,-27.4,30.9
2012-12-30 02:15:00,0.0,1.9104,0.0012,403.97,0.39,13.2,17.6,138.04,31.40,24.65,36.41,0.04,-272.75,-272.75,-45,566,-952,25.9,1.7,-28.9,25.9,1.7,-28.6,5.73,2.41,-27.4,30.9
2012-12-30 02:16:00,0.0,1.9111,0.0009,403.71,0.41,13.2,20.4,138.04,31.40,24.66,36.40,0.04,-272.74,-272.75,-45,566,-952,25.9,1.7,-29.0,25.9,1.7,-28.7,5.73,2.42,-27.4,30.9
2012-12-30 02:17:00,0.0,1.9114,0.0010,403.75,0.45,19.3,22.2,138.04,31.40,24.65,36.41,0.04,-272.74,-272.75,-45,566,-952,25.9,1.6,-29.2,25.9,1.7,-28.8,5.73,2.41,-27.4,30.9